This is the latest recevied weather packets stored in our database for station/object WV5G-13. If no packets are shown the sender has not sent any weather packets the latest 10 day(s).
| Time | Temp. | Humidity | Pressure | Rain* | Wind** | Luminosity | Snow |
|---|---|---|---|---|---|---|---|
| 1777898543 | 15° C | 60% | 1006.4 hPa | 0 mm | - | 45 W/m² | - |
| 1777898240 | 15° C | 60% | 1006.3 hPa | 0 mm | - | 41 W/m² | - |
| 1777897937 | 15° C | 61% | 1006.3 hPa | 0 mm | - | 36 W/m² | - |
| 1777897633 | 14.44° C | 61% | 1006.2 hPa | 0 mm | - | 27 W/m² | - |
| 1777897329 | 15° C | 60% | 1006.4 hPa | 0 mm | - | 22 W/m² | - |
| 1777897025 | 15° C | 60% | 1006.2 hPa | 0 mm | - | 17 W/m² | - |
| 1777896722 | 15° C | 60% | 1006.2 hPa | 0 mm | - | 12 W/m² | - |
| 1777896419 | 15° C | 59% | 1006 hPa | 0 mm | - | 9 W/m² | - |
| 1777896116 | 15° C | 60% | 1006 hPa | 0 mm | - | 6 W/m² | - |
| 1777895814 | 15° C | 59% | 1006.1 hPa | 0 mm | - | 4 W/m² | - |
| 1777895511 | 15° C | 59% | 1006.1 hPa | 0 mm | - | 2 W/m² | - |
| 1777895209 | 15° C | 59% | 1006 hPa | 0 mm | - | 1 W/m² | - |
| 1777894906 | 15° C | 59% | 1005.9 hPa | 0 mm | - | 0 W/m² | - |
| 1777894603 | 15° C | 59% | 1006.2 hPa | 0 mm | - | 0 W/m² | - |
| 1777894301 | 15.56° C | 58% | 1005.8 hPa | 0 mm | - | 0 W/m² | - |
| 1777893998 | 15° C | 59% | 1005.8 hPa | 0 mm | - | 0 W/m² | - |
| 1777893694 | 15° C | 59% | 1006.1 hPa | 0 mm | - | 0 W/m² | - |
| 1777893390 | 15° C | 59% | 1005.9 hPa | 0 mm | - | 0 W/m² | - |
| 1777893086 | 15° C | 59% | 1006 hPa | 0 mm | - | 0 W/m² | - |
| 1777892784 | 15° C | 60% | 1006.1 hPa | 0 mm | - | 0 W/m² | - |
| 1777892480 | 15° C | 60% | 1006.1 hPa | 0 mm | - | 0 W/m² | - |
| 1777892176 | 15° C | 60% | 1006.3 hPa | 0 mm | - | 0 W/m² | - |
| 1777891873 | 14.44° C | 60% | 1006 hPa | 0 mm | - | 0 W/m² | - |
| 1777891570 | 15° C | 60% | 1006.2 hPa | 0 mm | - | 0 W/m² | - |
| 1777891267 | 15° C | 60% | 1006.3 hPa | 0 mm | - | 0 W/m² | - |
* Rain latest hour (hover to see other rain measurements)
** Current wind speed in m/s (hover to see current wind gust speed)